Time,TemperatureF,DewpointF,PressureIn,WindDirection,WindDirectionDegrees,WindSpeedMPH,WindSpeedGustMPH,Humidity,HourlyPrecipIn,Conditions,Clouds,dailyrainin,SoftwareType,DateUTC
2013-03-17 00:00:00,60.3,56.7,30.12,SW,223,0.0,1.0,88,0.00,,,0.00,meteohub,2013-03-17 04:00:00,
2013-03-17 00:01:00,60.3,56.7,30.12,SW,223,0.0,1.0,88,0.00,,,0.00,meteohub,2013-03-17 04:01:00,
2013-03-17 00:02:00,60.3,56.7,30.12,SW,223,0.0,1.0,88,0.00,,,0.00,meteohub,2013-03-17 04:02:00,
2013-03-17 00:07:00,60.1,56.5,30.12,SW,223,0.0,1.0,88,0.00,,,0.00,meteohub,2013-03-17 04:07:00,
2013-03-17 00:12:00,59.9,56.3,30.12,SW,223,0.0,1.0,88,0.00,,,0.00,meteohub,2013-03-17 04:12:00,
2013-03-17 00:17:00,59.7,56.1,30.12,SW,223,0.0,0.0,88,0.00,,,0.00,meteohub,2013-03-17 04:17:00,
2013-03-17 00:22:00,59.7,56.1,30.12,SW,223,0.0,0.0,88,0.00,,,0.00,meteohub,2013-03-17 04:22:00,
2013-03-17 00:28:00,59.7,56.1,30.12,SW,223,0.0,0.0,88,0.00,,,0.00,meteohub,2013-03-17 04:28:00,
2013-03-17 00:33:00,59.5,56.3,30.12,SW,223,0.0,0.0,89,0.00,,,0.00,meteohub,2013-03-17 04:33:00,
2013-03-17 00:38:00,59.5,56.3,30.12,SW,223,0.0,0.0,89,0.00,,,0.00,meteohub,2013-03-17 04:38:00,
2013-03-17 00:43:00,59.5,56.3,30.12,SW,223,0.0,0.0,89,0.00,,,0.00,meteohub,2013-03-17 04:43:00,
2013-03-17 00:48:00,59.4,56.1,30.12,SW,223,0.0,0.0,89,0.00,,,0.00,meteohub,2013-03-17 04:48:00,
2013-03-17 00:54:00,59.4,56.1,30.12,SW,223,0.0,0.0,89,0.00,,,0.00,meteohub,2013-03-17 04:54:00,
2013-03-17 00:59:00,59.2,55.9,30.11,SW,223,0.0,0.0,89,0.00,,,0.00,meteohub,2013-03-17 04:59:00,
2013-03-17 01:04:00,59.0,55.8,30.11,SW,223,0.0,0.0,89,0.00,,,0.00,meteohub,2013-03-17 05:04:00,
2013-03-17 01:09:00,58.8,55.6,30.11,SW,223,0.0,0.0,89,0.00,,,0.00,meteohub,2013-03-17 05:09:00,
2013-03-17 01:15:00,58.6,55.4,30.11,SW,223,0.0,0.0,89,0.00,,,0.00,meteohub,2013-03-17 05:15:00,
2013-03-17 01:20:00,58.5,55.2,30.11,SW,223,0.0,0.0,89,0.00,,,0.00,meteohub,2013-03-17 05:20:00,
2013-03-17 01:25:00,58.5,55.2,30.11,SW,223,0.0,0.0,89,0.00,,,0.00,meteohub,2013-03-17 05:25:00,
2013-03-17 01:30:00,58.3,55.0,30.11,SW,223,0.0,0.0,89,0.00,,,0.00,meteohub,2013-03-17 05:30:00,
2013-03-17 01:35:00,58.3,55.4,30.11,SW,223,0.0,0.0,90,0.00,,,0.00,meteohub,2013-03-17 05:35:00,
2013-03-17 01:40:00,58.3,55.4,30.11,SW,223,0.0,0.0,90,0.00,,,0.00,meteohub,2013-03-17 05:40:00,
2013-03-17 01:45:00,58.3,55.4,30.10,SW,223,0.0,0.0,90,0.00,,,0.00,meteohub,2013-03-17 05:45:00,
2013-03-17 01:50:00,58.5,55.6,30.10,SW,223,0.0,0.0,90,0.00,,,0.00,meteohub,2013-03-17 05:50:00,
2013-03-17 01:55:00,58.5,55.6,30.10,SW,223,0.0,0.0,90,0.00,,,0.00,meteohub,2013-03-17 05:55:00,
2013-03-17 02:01:00,58.3,55.4,30.10,SW,223,0.0,0.0,90,0.00,,,0.00,meteohub,2013-03-17 06:01:00,
2013-03-17 02:06:00,58.3,55.4,30.10,SW,223,0.0,0.0,90,0.00,,,0.00,meteohub,2013-03-17 06:06:00,
2013-03-17 02:11:00,57.9,55.0,30.10,SW,223,0.0,0.0,90,0.00,,,0.00,meteohub,2013-03-17 06:11:00,
2013-03-17 02:17:00,57.4,54.1,30.10,SW,223,0.0,0.0,89,0.00,,,0.00,meteohub,2013-03-17 06:17:00,
2013-03-17 02:22:00,57.0,53.8,30.10,SW,223,0.0,0.0,89,0.00,,,0.00,meteohub,2013-03-17 06:22:00,
2013-03-17 02:27:00,56.8,53.6,30.10,SW,223,0.0,0.0,89,0.00,,,0.00,meteohub,2013-03-17 06:27:00,
2013-03-17 02:32:00,56.7,53.8,30.10,SW,223,0.0,0.0,90,0.00,,,0.00,meteohub,2013-03-17 06:32:00,
2013-03-17 02:37:00,56.7,53.8,30.09,SW,223,0.0,0.0,90,0.00,,,0.00,meteohub,2013-03-17 06:37:00,
2013-03-17 02:42:00,56.5,53.6,30.09,SW,223,0.0,0.0,90,0.00,,,0.00,meteohub,2013-03-17 06:42:00,
2013-03-17 02:47:00,56.1,53.2,30.09,SW,223,0.0,0.0,90,0.00,,,0.00,meteohub,2013-03-17 06:47:00,
2013-03-17 02:52:00,56.1,53.2,30.09,SW,223,0.0,0.0,90,0.00,,,0.00,meteohub,2013-03-17 06:52:00,
2013-03-17 02:57:00,55.9,53.1,30.09,SW,223,0.0,0.0,90,0.00,,,0.00,meteohub,2013-03-17 06:57:00,
2013-03-17 03:02:00,55.9,53.1,30.09,SW,223,0.0,0.0,90,0.00,,,0.00,meteohub,2013-03-17 07:02:00,
2013-03-17 03:07:00,55.9,53.4,30.09,SW,223,0.0,0.0,91,0.00,,,0.00,meteohub,2013-03-17 07:07:00,
2013-03-17 03:12:00,55.8,53.2,30.09,SW,223,0.0,0.0,91,0.00,,,0.00,meteohub,2013-03-17 07:12:00,
2013-03-17 03:17:00,55.8,53.2,30.09,SW,223,0.0,0.0,91,0.00,,,0.00,meteohub,2013-03-17 07:17:00,
2013-03-17 03:22:00,55.8,53.2,30.09,SW,223,0.0,0.0,91,0.00,,,0.00,meteohub,2013-03-17 07:22:00,
2013-03-17 03:27:00,56.1,53.8,30.09,SW,223,0.0,0.0,92,0.00,,,0.00,meteohub,2013-03-17 07:27:00,
2013-03-17 03:33:00,56.5,54.1,30.09,SW,223,0.0,0.0,92,0.00,,,0.00,meteohub,2013-03-17 07:33:00,
2013-03-17 03:38:00,58.3,56.5,30.09,SW,223,0.0,0.0,94,0.00,,,0.00,meteohub,2013-03-17 07:38:00,
2013-03-17 03:43:00,59.4,57.6,30.09,SW,223,0.0,3.0,94,0.00,,,0.00,meteohub,2013-03-17 07:43:00,
2013-03-17 03:48:00,59.5,57.6,30.08,SW,223,0.0,3.0,93,0.00,,,0.00,meteohub,2013-03-17 07:48:00,
2013-03-17 03:53:00,58.8,56.5,30.08,SW,223,1.0,3.0,92,0.00,,,0.00,meteohub,2013-03-17 07:53:00,
2013-03-17 03:59:00,59.7,57.7,30.08,SW,223,4.0,4.0,93,0.00,,,0.00,meteohub,2013-03-17 07:59:00,
2013-03-17 04:04:00,60.3,58.3,30.08,SW,223,4.0,5.0,93,0.00,,,0.00,meteohub,2013-03-17 08:04:00,
2013-03-17 04:09:00,60.4,58.1,30.07,SW,223,2.0,5.0,92,0.00,,,0.00,meteohub,2013-03-17 08:09:00,
2013-03-17 04:14:00,61.0,59.0,30.07,SW,223,2.0,5.0,93,0.00,,,0.00,meteohub,2013-03-17 08:14:00,
2013-03-17 04:20:00,61.3,59.0,30.07,SW,223,0.0,5.0,92,0.00,,,0.00,meteohub,2013-03-17 08:20:00,
2013-03-17 04:25:00,61.2,58.8,30.07,SW,223,1.0,5.0,92,0.00,,,0.00,meteohub,2013-03-17 08:25:00,
2013-03-17 04:30:00,61.3,59.0,30.07,SSW,212,0.0,5.0,92,0.00,,,0.00,meteohub,2013-03-17 08:30:00,
2013-03-17 04:36:00,61.3,59.0,30.07,SSW,212,1.0,5.0,92,0.00,,,0.00,meteohub,2013-03-17 08:36:00,
2013-03-17 04:42:00,61.3,59.0,30.07,SSW,207,2.0,5.0,92,0.00,,,0.00,meteohub,2013-03-17 08:42:00,
2013-03-17 04:47:00,61.2,58.8,30.07,SSW,207,0.0,5.0,92,0.00,,,0.00,meteohub,2013-03-17 08:47:00,
2013-03-17 04:52:00,61.0,58.6,30.07,SSW,207,0.0,5.0,92,0.00,,,0.00,meteohub,2013-03-17 08:52:00,
2013-03-17 04:57:00,60.1,57.4,30.07,SSW,207,0.0,5.0,91,0.00,,,0.00,meteohub,2013-03-17 08:57:00,
2013-03-17 05:02:00,59.7,57.0,30.07,SSW,207,0.0,3.0,91,0.00,,,0.00,meteohub,2013-03-17 09:02:00,
2013-03-17 05:07:00,59.5,57.2,30.07,SSW,207,0.0,0.0,92,0.00,,,0.00,meteohub,2013-03-17 09:07:00,
2013-03-17 05:12:00,59.5,57.2,30.07,SSW,207,0.0,0.0,92,0.00,,,0.00,meteohub,2013-03-17 09:12:00,
2013-03-17 05:17:00,59.7,57.7,30.07,SSW,207,0.0,0.0,93,0.00,,,0.00,meteohub,2013-03-17 09:17:00,
2013-03-17 05:23:00,60.4,58.5,30.07,SSW,207,0.0,3.0,93,0.00,,,0.00,meteohub,2013-03-17 09:23:00,
2013-03-17 05:28:00,60.6,58.6,30.07,SSW,207,2.0,4.0,93,0.00,,,0.00,meteohub,2013-03-17 09:28:00,
2013-03-17 05:33:00,60.4,58.5,30.07,SSW,207,0.0,4.0,93,0.00,,,0.00,meteohub,2013-03-17 09:33:00,
2013-03-17 05:38:00,60.4,58.5,30.08,South,171,4.0,4.0,93,0.00,,,0.00,meteohub,2013-03-17 09:38:00,
2013-03-17 05:43:00,60.4,58.5,30.08,South,171,0.0,5.0,93,0.00,,,0.00,meteohub,2013-03-17 09:43:00,
2013-03-17 05:49:00,60.4,58.5,30.08,South,171,0.0,5.0,93,0.00,,,0.00,meteohub,2013-03-17 09:49:00,
2013-03-17 05:54:00,60.4,58.5,30.08,South,171,0.0,5.0,93,0.00,,,0.00,meteohub,2013-03-17 09:54:00,
2013-03-17 05:59:00,60.3,58.3,30.08,South,171,0.0,4.0,93,0.00,,,0.00,meteohub,2013-03-17 09:59:00,
2013-03-17 06:04:00,60.3,58.3,30.08,SSE,152,3.0,4.0,93,0.00,,,0.00,meteohub,2013-03-17 10:04:00,
2013-03-17 06:09:00,60.3,58.3,30.08,SSE,149,3.0,5.0,93,0.00,,,0.00,meteohub,2013-03-17 10:09:00,
2013-03-17 06:15:00,60.4,58.5,30.09,SSE,149,0.0,5.0,93,0.00,,,0.00,meteohub,2013-03-17 10:15:00,
2013-03-17 06:20:00,60.8,58.8,30.09,SSE,149,1.0,5.0,93,0.00,,,0.00,meteohub,2013-03-17 10:20:00,
2013-03-17 06:25:00,61.0,59.0,30.09,SSE,149,0.0,3.0,93,0.00,,,0.00,meteohub,2013-03-17 10:25:00,
2013-03-17 06:30:00,60.8,58.8,30.09,SSE,149,0.0,3.0,93,0.00,,,0.00,meteohub,2013-03-17 10:30:00,
2013-03-17 06:35:00,60.6,58.6,30.09,SSE,149,0.0,3.0,93,0.00,,,0.00,meteohub,2013-03-17 10:35:00,
2013-03-17 06:41:00,60.6,58.6,30.10,SSE,149,0.0,3.0,93,0.00,,,0.00,meteohub,2013-03-17 10:41:00,
2013-03-17 06:46:00,60.6,58.6,30.10,SSE,149,0.0,3.0,93,0.00,,,0.00,meteohub,2013-03-17 10:46:00,
2013-03-17 06:52:00,60.3,57.9,30.09,SSE,149,0.0,3.0,92,0.00,,,0.00,meteohub,2013-03-17 10:52:00,
2013-03-17 06:57:00,59.7,57.4,30.09,SSE,149,2.0,3.0,92,0.00,,,0.00,meteohub,2013-03-17 10:57:00,
2013-03-17 07:02:00,59.7,57.7,30.09,SSE,149,3.0,4.0,93,0.00,,,0.00,meteohub,2013-03-17 11:02:00,
2013-03-17 07:07:00,60.1,58.1,30.10,SE,130,0.0,5.0,93,0.00,,,0.00,meteohub,2013-03-17 11:07:00,
2013-03-17 07:12:00,60.3,58.3,30.10,ESE,115,7.0,7.0,93,0.00,,,0.00,meteohub,2013-03-17 11:12:00,
2013-03-17 07:17:00,60.3,58.3,30.10,ESE,107,5.0,8.0,93,0.00,,,0.00,meteohub,2013-03-17 11:17:00,
2013-03-17 07:22:00,60.3,58.3,30.10,ESE,104,4.0,8.0,93,0.00,,,0.00,meteohub,2013-03-17 11:22:00,
2013-03-17 07:27:00,60.6,58.6,30.11,ESE,103,0.0,8.0,93,0.00,,,0.00,meteohub,2013-03-17 11:27:00,
2013-03-17 07:33:00,60.8,58.5,30.11,ESE,103,5.0,8.0,92,0.00,,,0.00,meteohub,2013-03-17 11:33:00,
2013-03-17 07:38:00,61.0,58.6,30.11,ESE,103,0.0,7.0,92,0.00,,,0.00,meteohub,2013-03-17 11:38:00,
2013-03-17 07:43:00,61.0,58.6,30.11,ESE,103,3.0,5.0,92,0.00,,,0.00,meteohub,2013-03-17 11:43:00,
2013-03-17 07:48:00,60.8,58.5,30.11,ESE,103,0.0,5.0,92,0.00,,,0.00,meteohub,2013-03-17 11:48:00,
2013-03-17 07:53:00,60.8,58.1,30.11,ESE,103,5.0,5.0,91,0.00,,,0.00,meteohub,2013-03-17 11:53:00,
2013-03-17 07:59:00,60.6,57.9,30.11,ESE,103,5.0,5.0,91,0.00,,,0.00,meteohub,2013-03-17 11:59:00,
2013-03-17 08:04:00,60.6,57.9,30.12,East,93,2.0,8.0,91,0.00,,,0.00,meteohub,2013-03-17 12:04:00,
2013-03-17 08:09:00,60.6,57.7,30.12,East,93,7.0,8.0,90,0.00,,,0.00,meteohub,2013-03-17 12:09:00,
2013-03-17 08:14:00,60.6,57.7,30.12,East,92,6.0,8.0,90,0.00,,,0.00,meteohub,2013-03-17 12:14:00,
2013-03-17 08:19:00,60.8,57.9,30.12,East,93,5.0,8.0,90,0.00,,,0.00,meteohub,2013-03-17 12:19:00,
2013-03-17 08:24:00,60.8,57.9,30.12,East,93,0.0,9.0,90,0.00,,,0.00,meteohub,2013-03-17 12:24:00,
2013-03-17 08:30:00,61.0,58.1,30.12,East,93,0.0,9.0,90,0.00,,,0.00,meteohub,2013-03-17 12:30:00,
2013-03-17 08:35:00,61.0,57.7,30.12,East,93,0.0,9.0,89,0.00,,,0.00,meteohub,2013-03-17 12:35:00,
2013-03-17 08:40:00,61.0,57.7,30.12,East,93,0.0,7.0,89,0.00,,,0.00,meteohub,2013-03-17 12:40:00,
2013-03-17 08:45:00,61.0,57.7,30.12,East,93,0.0,5.0,89,0.00,,,0.00,meteohub,2013-03-17 12:45:00,
2013-03-17 08:50:00,60.8,57.2,30.13,East,93,0.0,6.0,88,0.00,,,0.00,meteohub,2013-03-17 12:50:00,
2013-03-17 08:55:00,61.0,57.4,30.13,East,93,0.0,6.0,88,0.00,,,0.00,meteohub,2013-03-17 12:55:00,
2013-03-17 09:01:00,61.2,57.6,30.13,East,93,2.0,6.0,88,0.00,,,0.00,meteohub,2013-03-17 13:01:00,
2013-03-17 09:06:00,61.2,57.2,30.13,East,87,7.0,7.0,87,0.00,,,0.00,meteohub,2013-03-17 13:06:00,
2013-03-17 09:12:00,61.5,57.6,30.13,East,88,3.0,8.0,87,0.00,,,0.00,meteohub,2013-03-17 13:12:00,
2013-03-17 09:17:00,61.9,57.6,30.13,East,93,6.0,10.0,86,0.00,,,0.00,meteohub,2013-03-17 13:17:00,
2013-03-17 09:22:00,62.1,57.7,30.13,East,81,2.0,10.0,86,0.00,,,0.00,meteohub,2013-03-17 13:22:00,
2013-03-17 09:27:00,62.2,57.7,30.12,East,88,3.0,10.0,85,0.00,,,0.00,meteohub,2013-03-17 13:27:00,
2013-03-17 09:33:00,62.4,57.6,30.12,East,98,10.0,14.0,84,0.00,,,0.00,meteohub,2013-03-17 13:33:00,
2013-03-17 09:38:00,62.8,57.6,30.13,East,96,7.0,14.0,83,0.00,,,0.00,meteohub,2013-03-17 13:38:00,
2013-03-17 09:43:00,63.1,56.8,30.13,East,93,8.0,13.0,80,0.00,,,0.00,meteohub,2013-03-17 13:43:00,
2013-03-17 09:49:00,63.3,56.7,30.14,East,91,6.0,13.0,79,0.00,,,0.00,meteohub,2013-03-17 13:49:00,
2013-03-17 09:54:00,63.1,56.5,30.13,East,94,1.0,13.0,79,0.00,,,0.00,meteohub,2013-03-17 13:54:00,
2013-03-17 09:59:00,63.1,56.5,30.13,East,94,5.0,13.0,79,0.00,,,0.00,meteohub,2013-03-17 13:59:00,
2013-03-17 10:04:00,63.0,56.3,30.13,East,95,5.0,13.0,79,0.00,,,0.00,meteohub,2013-03-17 14:04:00,
2013-03-17 10:09:00,63.0,56.7,30.14,East,91,6.0,11.0,80,0.00,,,0.00,meteohub,2013-03-17 14:09:00,
2013-03-17 10:14:00,63.0,56.3,30.14,East,97,7.0,11.0,79,0.00,,,0.00,meteohub,2013-03-17 14:14:00,
2013-03-17 10:20:00,62.8,56.1,30.14,East,92,3.0,13.0,79,0.00,,,0.00,meteohub,2013-03-17 14:20:00,
2013-03-17 10:25:00,62.8,56.1,30.14,East,94,9.0,13.0,79,0.00,,,0.00,meteohub,2013-03-17 14:25:00,
2013-03-17 10:30:00,63.0,56.7,30.14,East,91,9.0,11.0,80,0.00,,,0.00,meteohub,2013-03-17 14:30:00,
2013-03-17 10:35:00,63.0,56.7,30.15,East,96,8.0,11.0,80,0.00,,,0.00,meteohub,2013-03-17 14:35:00,
2013-03-17 10:40:00,63.1,56.8,30.15,East,90,3.0,11.0,80,0.00,,,0.00,meteohub,2013-03-17 14:40:00,
2013-03-17 10:45:00,63.5,57.2,30.15,East,90,7.0,11.0,80,0.00,,,0.00,meteohub,2013-03-17 14:45:00,
2013-03-17 10:51:00,64.0,57.7,30.15,East,93,6.0,11.0,80,0.00,,,0.00,meteohub,2013-03-17 14:51:00,
2013-03-17 10:56:00,64.6,57.9,30.15,East,92,3.0,10.0,79,0.00,,,0.00,meteohub,2013-03-17 14:56:00,
2013-03-17 11:01:00,65.5,58.5,30.15,East,92,2.0,8.0,78,0.00,,,0.00,meteohub,2013-03-17 15:01:00,
2013-03-17 11:06:00,65.8,58.5,30.14,East,90,3.0,8.0,77,0.00,,,0.00,meteohub,2013-03-17 15:06:00,
2013-03-17 11:12:00,66.4,59.0,30.14,East,88,1.0,8.0,77,0.00,,,0.00,meteohub,2013-03-17 15:12:00,
2013-03-17 11:17:00,67.1,59.4,30.14,East,86,2.0,8.0,76,0.00,,,0.00,meteohub,2013-03-17 15:17:00,
2013-03-17 11:22:00,67.6,59.4,30.14,East,85,3.0,8.0,75,0.00,,,0.00,meteohub,2013-03-17 15:22:00,
2013-03-17 11:27:00,67.5,59.2,30.14,East,82,5.0,8.0,75,0.00,,,0.00,meteohub,2013-03-17 15:27:00,
2013-03-17 11:32:00,67.6,59.4,30.14,ENE,78,4.0,7.0,75,0.00,,,0.00,meteohub,2013-03-17 15:32:00,
2013-03-17 11:37:00,68.2,59.5,30.14,ENE,71,2.0,9.0,74,0.00,,,0.00,meteohub,2013-03-17 15:37:00,
2013-03-17 11:42:00,68.9,59.9,30.15,ENE,75,3.0,9.0,73,0.00,,,0.00,meteohub,2013-03-17 15:42:00,
2013-03-17 11:47:00,69.8,60.8,30.14,ENE,74,2.0,9.0,73,0.00,,,0.00,meteohub,2013-03-17 15:47:00,
2013-03-17 11:53:00,70.5,60.3,30.14,ENE,76,0.0,8.0,70,0.00,,,0.00,meteohub,2013-03-17 15:53:00,
2013-03-17 11:58:00,71.1,60.4,30.14,ENE,74,2.0,7.0,69,0.00,,,0.00,meteohub,2013-03-17 15:58:00,
2013-03-17 12:03:00,71.1,59.9,30.13,ENE,71,3.0,7.0,68,0.00,,,0.00,meteohub,2013-03-17 16:03:00,
2013-03-17 12:08:00,71.1,59.9,30.14,ENE,71,0.0,5.0,68,0.00,,,0.00,meteohub,2013-03-17 16:08:00,
2013-03-17 12:13:00,71.1,60.4,30.13,ENE,70,1.0,7.0,69,0.00,,,0.00,meteohub,2013-03-17 16:13:00,
2013-03-17 12:18:00,70.9,59.4,30.13,ENE,71,1.0,7.0,67,0.00,,,0.00,meteohub,2013-03-17 16:18:00,
2013-03-17 12:24:00,70.7,60.1,30.13,ENE,71,2.0,5.0,69,0.00,,,0.00,meteohub,2013-03-17 16:24:00,
2013-03-17 12:29:00,70.5,60.3,30.13,ENE,68,1.0,8.0,70,0.00,,,0.00,meteohub,2013-03-17 16:29:00,
2013-03-17 12:34:00,70.9,59.7,30.12,ENE,76,3.0,8.0,68,0.00,,,0.00,meteohub,2013-03-17 16:34:00,
2013-03-17 12:39:00,70.9,59.7,30.12,ENE,77,2.0,9.0,68,0.00,,,0.00,meteohub,2013-03-17 16:39:00,
2013-03-17 12:44:00,71.6,60.4,30.12,ENE,69,2.0,9.0,68,0.00,,,0.00,meteohub,2013-03-17 16:44:00,
2013-03-17 12:50:00,72.1,61.0,30.12,ENE,69,3.0,9.0,68,0.00,,,0.00,meteohub,2013-03-17 16:50:00,
2013-03-17 12:55:00,72.3,60.8,30.13,ENE,69,3.0,8.0,67,0.00,,,0.00,meteohub,2013-03-17 16:55:00,
2013-03-17 13:00:00,72.3,60.8,30.12,ENE,70,5.0,7.0,67,0.00,,,0.00,meteohub,2013-03-17 17:00:00,
2013-03-17 13:05:00,72.3,60.8,30.12,East,85,7.0,9.0,67,0.00,,,0.00,meteohub,2013-03-17 17:05:00,
2013-03-17 13:11:00,72.3,60.3,30.12,ENE,74,3.0,13.0,66,0.00,,,0.00,meteohub,2013-03-17 17:11:00,
2013-03-17 13:16:00,72.9,60.4,30.12,ENE,73,2.0,13.0,65,0.00,,,0.00,meteohub,2013-03-17 17:16:00,
2013-03-17 13:21:00,73.2,60.3,30.11,ENE,73,3.0,13.0,64,0.00,,,0.00,meteohub,2013-03-17 17:21:00,
2013-03-17 13:26:00,73.8,59.9,30.11,ENE,72,4.0,8.0,62,0.00,,,0.00,meteohub,2013-03-17 17:26:00,
2013-03-17 13:32:00,74.3,60.4,30.11,ENE,69,3.0,5.0,62,0.00,,,0.00,meteohub,2013-03-17 17:32:00,
2013-03-17 13:37:00,74.5,61.5,30.11,ENE,70,3.0,7.0,64,0.00,,,0.00,meteohub,2013-03-17 17:37:00,
2013-03-17 13:42:00,74.1,59.7,30.10,ENE,71,3.0,7.0,61,0.00,,,0.00,meteohub,2013-03-17 17:42:00,
2013-03-17 13:47:00,73.9,60.6,30.10,ENE,74,4.0,8.0,63,0.00,,,0.00,meteohub,2013-03-17 17:47:00,
2013-03-17 13:52:00,73.6,60.6,30.10,East,83,2.0,8.0,64,0.00,,,0.00,meteohub,2013-03-17 17:52:00,
2013-03-17 13:57:00,73.4,61.0,30.09,East,81,3.0,10.0,65,0.00,,,0.00,meteohub,2013-03-17 17:57:00,
2013-03-17 14:02:00,73.6,61.2,30.09,East,79,0.0,10.0,65,0.00,,,0.00,meteohub,2013-03-17 18:02:00,
2013-03-17 14:07:00,73.8,61.7,30.09,East,79,3.0,8.0,66,0.00,,,0.00,meteohub,2013-03-17 18:07:00,
2013-03-17 14:12:00,73.8,62.1,30.08,ENE,73,5.0,7.0,67,0.00,,,0.00,meteohub,2013-03-17 18:12:00,
2013-03-17 14:17:00,73.9,61.3,30.08,East,87,9.0,9.0,65,0.00,,,0.00,meteohub,2013-03-17 18:17:00,
2013-03-17 14:22:00,74.1,61.5,30.08,East,88,8.0,11.0,65,0.00,,,0.00,meteohub,2013-03-17 18:22:00,
2013-03-17 14:27:00,74.1,61.5,30.08,East,82,5.0,11.0,65,0.00,,,0.00,meteohub,2013-03-17 18:27:00,
2013-03-17 14:32:00,73.9,62.8,30.08,East,80,3.0,11.0,68,0.00,,,0.00,meteohub,2013-03-17 18:32:00,
2013-03-17 14:38:00,74.1,62.4,30.07,East,90,7.0,11.0,67,0.00,,,0.00,meteohub,2013-03-17 18:38:00,
2013-03-17 14:43:00,73.6,61.5,30.07,East,92,0.0,11.0,66,0.00,,,0.00,meteohub,2013-03-17 18:43:00,
2013-03-17 14:48:00,72.7,59.4,30.07,SSW,202,8.0,11.0,63,0.00,,,0.00,meteohub,2013-03-17 18:48:00,
2013-03-17 14:53:00,72.3,59.5,30.07,South,178,8.0,12.0,64,0.00,,,0.00,meteohub,2013-03-17 18:53:00,
2013-03-17 14:58:00,72.5,60.1,30.06,SSW,196,6.0,12.0,65,0.00,,,0.00,meteohub,2013-03-17 18:58:00,
2013-03-17 15:03:00,72.3,60.3,30.06,SSW,194,5.0,12.0,66,0.00,,,0.00,meteohub,2013-03-17 19:03:00,
2013-03-17 15:09:00,72.1,60.1,30.06,South,184,5.0,12.0,66,0.00,,,0.00,meteohub,2013-03-17 19:09:00,
2013-03-17 15:14:00,72.3,60.8,30.06,SSW,209,7.0,13.0,67,0.00,,,0.00,meteohub,2013-03-17 19:14:00,
2013-03-17 15:19:00,72.7,60.6,30.05,SSW,209,4.0,13.0,66,0.00,,,0.00,meteohub,2013-03-17 19:19:00,
2013-03-17 15:24:00,72.1,60.6,30.05,SSW,213,9.0,13.0,67,0.00,,,0.00,meteohub,2013-03-17 19:24:00,
2013-03-17 15:29:00,72.0,60.8,30.05,SSW,193,5.0,11.0,68,0.00,,,0.00,meteohub,2013-03-17 19:29:00,
2013-03-17 15:34:00,71.8,60.3,30.05,SW,232,5.0,12.0,67,0.00,,,0.00,meteohub,2013-03-17 19:34:00,
2013-03-17 15:40:00,71.6,60.8,30.04,South,175,4.0,12.0,69,0.00,,,0.00,meteohub,2013-03-17 19:40:00,
2013-03-17 15:45:00,71.4,60.3,30.04,South,189,3.0,11.0,68,0.00,,,0.00,meteohub,2013-03-17 19:45:00,
2013-03-17 15:50:00,71.2,60.1,30.04,SSE,165,8.0,10.0,68,0.00,,,0.00,meteohub,2013-03-17 19:50:00,
2013-03-17 15:55:00,71.2,60.1,30.03,South,171,5.0,11.0,68,0.00,,,0.00,meteohub,2013-03-17 19:55:00,
2013-03-17 16:00:00,71.1,60.4,30.03,South,170,8.0,11.0,69,0.00,,,0.00,meteohub,2013-03-17 20:00:00,
2013-03-17 16:06:00,71.1,60.4,30.03,South,176,7.0,11.0,69,0.00,,,0.00,meteohub,2013-03-17 20:06:00,
2013-03-17 16:12:00,71.1,59.9,30.03,South,178,5.0,10.0,68,0.00,,,0.00,meteohub,2013-03-17 20:12:00,
2013-03-17 16:17:00,71.1,59.9,30.03,SSW,213,7.0,10.0,68,0.00,,,0.00,meteohub,2013-03-17 20:17:00,
2013-03-17 16:22:00,71.1,59.9,30.02,SSW,199,6.0,10.0,68,0.00,,,0.00,meteohub,2013-03-17 20:22:00,
2013-03-17 16:28:00,71.1,60.4,30.02,South,189,5.0,10.0,69,0.00,,,0.00,meteohub,2013-03-17 20:28:00,
2013-03-17 16:33:00,71.1,60.4,30.02,SSW,202,7.0,8.0,69,0.00,,,0.00,meteohub,2013-03-17 20:33:00,
2013-03-17 16:38:00,71.1,60.4,30.02,SSW,198,7.0,9.0,69,0.00,,,0.00,meteohub,2013-03-17 20:38:00,
2013-03-17 16:43:00,70.9,59.7,30.02,SSW,197,6.0,10.0,68,0.00,,,0.00,meteohub,2013-03-17 20:43:00,
2013-03-17 16:48:00,70.7,58.3,30.03,SSW,198,7.0,10.0,65,0.00,,,0.00,meteohub,2013-03-17 20:48:00,
2013-03-17 16:54:00,70.5,58.6,30.03,SSW,196,7.0,11.0,66,0.00,,,0.00,meteohub,2013-03-17 20:54:00,
2013-03-17 16:59:00,70.5,59.0,30.03,SSW,202,6.0,11.0,67,0.00,,,0.00,meteohub,2013-03-17 20:59:00,
2013-03-17 17:04:00,70.5,59.4,30.03,SSW,201,7.0,11.0,68,0.00,,,0.00,meteohub,2013-03-17 21:04:00,
2013-03-17 17:09:00,70.3,60.1,30.03,South,190,5.0,10.0,70,0.00,,,0.00,meteohub,2013-03-17 21:09:00,
2013-03-17 17:15:00,70.3,60.4,30.02,South,190,2.0,10.0,71,0.00,,,0.00,meteohub,2013-03-17 21:15:00,
2013-03-17 17:20:00,70.3,60.4,30.01,South,190,3.0,8.0,71,0.00,,,0.00,meteohub,2013-03-17 21:20:00,
2013-03-17 17:25:00,70.2,61.2,30.02,South,190,4.0,6.0,73,0.00,,,0.00,meteohub,2013-03-17 21:25:00,
2013-03-17 17:30:00,70.2,61.5,30.02,South,190,4.0,5.0,74,0.00,,,0.00,meteohub,2013-03-17 21:30:00,
2013-03-17 17:35:00,70.0,61.0,30.02,South,182,5.0,9.0,73,0.00,,,0.00,meteohub,2013-03-17 21:35:00,
2013-03-17 17:40:00,70.0,61.3,30.03,South,190,7.0,10.0,74,0.00,,,0.00,meteohub,2013-03-17 21:40:00,
2013-03-17 17:46:00,70.0,61.0,30.03,SSW,202,4.0,11.0,73,0.00,,,0.00,meteohub,2013-03-17 21:46:00,
2013-03-17 17:52:00,70.0,61.3,30.03,South,189,4.0,11.0,74,0.00,,,0.00,meteohub,2013-03-17 21:52:00,
2013-03-17 17:57:00,70.0,61.0,30.03,SSW,203,9.0,11.0,73,0.00,,,0.00,meteohub,2013-03-17 21:57:00,
2013-03-17 18:02:00,70.0,61.0,30.02,SSW,199,5.0,11.0,73,0.00,,,0.00,meteohub,2013-03-17 22:02:00,
2013-03-17 18:07:00,70.0,61.3,30.02,SSW,193,4.0,11.0,74,0.00,,,0.00,meteohub,2013-03-17 22:07:00,
2013-03-17 18:12:00,70.0,61.0,30.02,SSW,200,4.0,11.0,73,0.00,,,0.00,meteohub,2013-03-17 22:12:00,
2013-03-17 18:18:00,70.2,60.3,30.02,SW,222,4.0,8.0,71,0.00,,,0.00,meteohub,2013-03-17 22:18:00,
2013-03-17 18:23:00,70.2,60.6,30.02,SW,217,4.0,11.0,72,0.00,,,0.00,meteohub,2013-03-17 22:23:00,
2013-03-17 18:28:00,70.2,61.2,30.02,SW,217,2.0,11.0,73,0.00,,,0.00,meteohub,2013-03-17 22:28:00,
2013-03-17 18:33:00,70.2,61.5,30.02,SW,214,3.0,11.0,74,0.00,,,0.00,meteohub,2013-03-17 22:33:00,
2013-03-17 18:39:00,70.0,61.0,30.02,SW,214,3.0,7.0,73,0.00,,,0.00,meteohub,2013-03-17 22:39:00,
2013-03-17 18:44:00,70.2,61.2,30.02,SW,214,4.0,6.0,73,0.00,,,0.00,meteohub,2013-03-17 22:44:00,
2013-03-17 18:49:00,70.0,61.0,30.02,SSW,207,1.0,8.0,73,0.00,,,0.00,meteohub,2013-03-17 22:49:00,
2013-03-17 18:54:00,70.2,61.2,30.02,SSW,207,4.0,8.0,73,0.00,,,0.00,meteohub,2013-03-17 22:54:00,
2013-03-17 18:59:00,70.0,60.6,30.02,SSW,198,2.0,8.0,72,0.00,,,0.00,meteohub,2013-03-17 22:59:00,
2013-03-17 19:04:00,70.2,60.6,30.02,South,187,3.0,7.0,72,0.00,,,0.00,meteohub,2013-03-17 23:04:00,
2013-03-17 19:10:00,70.2,60.6,30.02,South,188,3.0,7.0,72,0.00,,,0.00,meteohub,2013-03-17 23:10:00,
2013-03-17 19:15:00,70.0,60.6,30.02,South,189,4.0,7.0,72,0.00,,,0.00,meteohub,2013-03-17 23:15:00,
2013-03-17 19:20:00,70.0,61.0,30.02,South,188,2.0,7.0,73,0.00,,,0.00,meteohub,2013-03-17 23:20:00,
2013-03-17 19:25:00,70.0,61.0,30.03,South,190,5.0,7.0,73,0.00,,,0.00,meteohub,2013-03-17 23:25:00,
2013-03-17 19:31:00,69.8,60.8,30.03,SSW,192,3.0,7.0,73,0.00,,,0.00,meteohub,2013-03-17 23:31:00,
2013-03-17 19:36:00,69.6,60.6,30.02,South,189,3.0,7.0,73,0.00,,,0.00,meteohub,2013-03-17 23:36:00,
2013-03-17 19:41:00,69.6,61.0,30.02,South,183,2.0,7.0,74,0.00,,,0.00,meteohub,2013-03-17 23:41:00,
2013-03-17 19:46:00,69.6,61.3,30.01,South,183,2.0,6.0,75,0.00,,,0.00,meteohub,2013-03-17 23:46:00,
2013-03-17 19:52:00,69.6,61.7,30.01,South,183,2.0,6.0,76,0.00,,,0.00,meteohub,2013-03-17 23:52:00,
2013-03-17 19:57:00,69.4,61.5,30.03,South,183,0.0,4.0,76,0.00,,,0.00,meteohub,2013-03-17 23:57:00,
2013-03-17 20:02:00,69.1,61.2,30.03,South,183,0.0,4.0,76,0.00,,,0.00,meteohub,2013-03-18 00:02:00,
2013-03-17 20:07:00,69.1,61.5,30.03,South,183,0.0,4.0,77,0.00,,,0.00,meteohub,2013-03-18 00:07:00,
2013-03-17 20:12:00,68.9,61.7,30.02,South,183,0.0,3.0,78,0.00,,,0.00,meteohub,2013-03-18 00:12:00,
2013-03-17 20:17:00,68.7,61.5,30.02,South,183,0.0,3.0,78,0.00,,,0.00,meteohub,2013-03-18 00:17:00,
2013-03-17 20:23:00,68.7,61.9,30.02,South,183,0.0,2.0,79,0.00,,,0.00,meteohub,2013-03-18 00:23:00,
2013-03-17 20:28:00,68.5,62.1,30.02,South,183,0.0,0.0,80,0.00,,,0.00,meteohub,2013-03-18 00:28:00,
2013-03-17 20:33:00,68.4,61.5,30.02,South,183,0.0,0.0,79,0.00,,,0.00,meteohub,2013-03-18 00:33:00,
2013-03-17 20:38:00,68.2,61.3,30.03,South,183,0.0,0.0,79,0.00,,,0.00,meteohub,2013-03-18 00:38:00,
2013-03-17 20:43:00,67.8,61.0,30.03,South,183,0.0,0.0,79,0.00,,,0.00,meteohub,2013-03-18 00:43:00,
2013-03-17 20:49:00,67.8,61.3,30.03,South,183,0.0,0.0,80,0.00,,,0.00,meteohub,2013-03-18 00:49:00,
2013-03-17 20:54:00,67.8,61.3,30.03,South,183,0.0,0.0,80,0.00,,,0.00,meteohub,2013-03-18 00:54:00,
2013-03-17 20:59:00,67.8,61.0,30.03,South,183,0.0,1.0,79,0.00,,,0.00,meteohub,2013-03-18 00:59:00,
2013-03-17 21:04:00,68.0,60.8,30.04,South,183,0.0,1.0,78,0.00,,,0.00,meteohub,2013-03-18 01:04:00,
2013-03-17 21:09:00,68.2,61.0,30.04,South,183,0.0,4.0,78,0.00,,,0.00,meteohub,2013-03-18 01:09:00,
2013-03-17 21:14:00,68.4,61.2,30.03,South,183,0.0,4.0,78,0.00,,,0.00,meteohub,2013-03-18 01:14:00,
2013-03-17 21:20:00,68.4,61.2,30.04,South,183,0.0,4.0,78,0.00,,,0.00,meteohub,2013-03-18 01:20:00,
2013-03-17 21:25:00,68.4,61.2,30.03,South,183,0.0,3.0,78,0.00,,,0.00,meteohub,2013-03-18 01:25:00,
2013-03-17 21:30:00,68.2,61.0,30.03,South,183,0.0,3.0,78,0.00,,,0.00,meteohub,2013-03-18 01:30:00,
2013-03-17 21:35:00,68.2,61.0,30.04,South,183,0.0,0.0,78,0.00,,,0.00,meteohub,2013-03-18 01:35:00,
2013-03-17 21:40:00,68.2,61.3,30.04,South,183,0.0,0.0,79,0.00,,,0.00,meteohub,2013-03-18 01:40:00,
2013-03-17 21:45:00,68.0,61.5,30.04,South,183,0.0,0.0,80,0.00,,,0.00,meteohub,2013-03-18 01:45:00,
2013-03-17 21:50:00,67.8,60.6,30.05,South,183,0.0,0.0,78,0.00,,,0.00,meteohub,2013-03-18 01:50:00,
2013-03-17 21:56:00,67.8,60.6,30.05,South,183,0.0,0.0,78,0.00,,,0.00,meteohub,2013-03-18 01:56:00,
2013-03-17 22:01:00,68.0,60.4,30.04,South,183,0.0,0.0,77,0.00,,,0.00,meteohub,2013-03-18 02:01:00,
2013-03-17 22:06:00,68.2,60.6,30.04,South,183,0.0,3.0,77,0.00,,,0.00,meteohub,2013-03-18 02:06:00,
2013-03-17 22:11:00,68.4,60.8,30.05,South,183,0.0,3.0,77,0.00,,,0.00,meteohub,2013-03-18 02:11:00,
2013-03-17 22:17:00,68.4,60.8,30.05,South,183,0.0,3.0,77,0.00,,,0.00,meteohub,2013-03-18 02:17:00,
2013-03-17 22:22:00,68.4,61.2,30.04,South,183,0.0,3.0,78,0.00,,,0.00,meteohub,2013-03-18 02:22:00,
2013-03-17 22:27:00,68.5,62.1,30.04,South,183,0.0,2.0,80,0.00,,,0.00,meteohub,2013-03-18 02:27:00,
2013-03-17 22:32:00,68.5,62.4,30.04,South,183,0.0,4.0,81,0.00,,,0.00,meteohub,2013-03-18 02:32:00,
2013-03-17 22:37:00,68.7,62.6,30.05,South,183,0.0,4.0,81,0.00,,,0.00,meteohub,2013-03-18 02:37:00,
2013-03-17 22:42:00,68.4,61.9,30.05,South,183,0.0,4.0,80,0.00,,,0.00,meteohub,2013-03-18 02:42:00,
2013-03-17 22:47:00,68.2,61.3,30.05,South,183,0.0,0.0,79,0.00,,,0.00,meteohub,2013-03-18 02:47:00,
2013-03-17 22:52:00,68.0,61.5,30.05,South,183,0.0,0.0,80,0.00,,,0.00,meteohub,2013-03-18 02:52:00,
2013-03-17 22:57:00,67.8,61.7,30.05,South,183,0.0,0.0,81,0.00,,,0.00,meteohub,2013-03-18 02:57:00,
2013-03-17 23:02:00,67.8,61.7,30.05,South,183,0.0,0.0,81,0.00,,,0.00,meteohub,2013-03-18 03:02:00,
2013-03-17 23:07:00,67.6,61.5,30.05,South,183,0.0,0.0,81,0.00,,,0.00,meteohub,2013-03-18 03:07:00,
2013-03-17 23:13:00,67.8,62.1,30.05,South,183,0.0,0.0,82,0.00,,,0.00,meteohub,2013-03-18 03:13:00,
2013-03-17 23:18:00,67.8,62.4,30.05,South,183,0.0,1.0,83,0.00,,,0.00,meteohub,2013-03-18 03:18:00,
2013-03-17 23:23:00,67.5,61.7,30.04,SE,145,4.0,4.0,82,0.00,,,0.00,meteohub,2013-03-18 03:23:00,
2013-03-17 23:29:00,67.5,62.4,30.04,SE,142,2.0,5.0,84,0.00,,,0.00,meteohub,2013-03-18 03:29:00,
2013-03-17 23:34:00,67.6,63.0,30.04,SE,142,1.0,5.0,85,0.00,,,0.00,meteohub,2013-03-18 03:34:00,
2013-03-17 23:39:00,67.3,62.2,30.03,SE,126,4.0,5.0,84,0.00,,,0.00,meteohub,2013-03-18 03:39:00,
2013-03-17 23:44:00,66.9,61.9,30.03,East,92,6.0,6.0,84,0.00,,,0.00,meteohub,2013-03-18 03:44:00,
2013-03-17 23:49:00,66.7,62.1,30.03,East,92,3.0,7.0,85,0.00,,,0.00,meteohub,2013-03-18 03:49:00,
2013-03-17 23:54:00,66.7,62.1,30.03,East,87,8.0,9.0,85,0.00,,,0.00,meteohub,2013-03-18 03:54:00,